Time,TemperatureF,DewpointF,PressureIn,WindDirection,WindDirectionDegrees,WindSpeedMPH,WindSpeedGustMPH,Humidity,HourlyPrecipIn,Conditions,Clouds,dailyrainin,SoftwareType,DateUTC
2013-09-11 00:02:00,53.9,52.0,30.05,South,170,0.0,2.0,94,0.00,,,0.00,weatherlink.com 1.10,2013-09-11 07:02:00,
2013-09-11 00:17:00,53.8,52.0,30.05,South,170,0.0,3.0,93,0.00,,,0.00,weatherlink.com 1.10,2013-09-11 07:17:00,
2013-09-11 00:32:00,53.7,52.0,30.05,SSW,203,1.0,4.0,93,0.00,,,0.00,weatherlink.com 1.10,2013-09-11 07:32:00,
2013-09-11 01:02:00,53.8,52.0,30.06,SSW,203,0.0,3.0,93,0.00,,,0.00,weatherlink.com 1.10,2013-09-11 08:02:00,
2013-09-11 01:17:00,53.9,52.0,30.05,SSW,203,0.0,2.0,94,0.00,,,0.00,weatherlink.com 1.10,2013-09-11 08:17:00,
2013-09-11 01:32:00,53.9,52.0,30.05,SSW,203,0.0,2.0,94,0.00,,,0.00,weatherlink.com 1.10,2013-09-11 08:32:00,
2013-09-11 01:47:00,53.9,52.0,30.05,SSW,203,0.0,2.0,94,0.00,,,0.00,weatherlink.com 1.10,2013-09-11 08:47:00,
2013-09-11 02:02:00,53.9,52.0,30.05,SSW,203,0.0,1.0,94,0.00,,,0.00,weatherlink.com 1.10,2013-09-11 09:02:00,
2013-09-11 02:17:00,53.9,52.0,30.05,SSW,203,0.0,3.0,94,0.00,,,0.00,weatherlink.com 1.10,2013-09-11 09:17:00,
2013-09-11 02:32:00,53.9,52.0,30.05,SSW,192,1.0,7.0,94,0.00,,,0.00,weatherlink.com 1.10,2013-09-11 09:32:00,
2013-09-11 02:47:00,53.9,52.0,30.05,SSW,192,0.0,4.0,93,0.00,,,0.00,weatherlink.com 1.10,2013-09-11 09:47:00,
2013-09-11 03:02:00,53.9,52.0,30.05,SSE,165,1.0,7.0,93,0.00,,,0.00,weatherlink.com 1.10,2013-09-11 10:02:00,
2013-09-11 03:17:00,53.9,52.0,30.05,South,190,0.0,4.0,93,0.00,,,0.00,weatherlink.com 1.10,2013-09-11 10:17:00,
2013-09-11 03:32:00,53.8,52.0,30.05,South,190,1.0,3.0,93,0.00,,,0.00,weatherlink.com 1.10,2013-09-11 10:32:00,
2013-09-11 03:47:00,53.8,52.0,30.05,South,190,2.0,3.0,94,0.02,,,0.02,weatherlink.com 1.10,2013-09-11 10:47:00,
2013-09-11 04:02:00,53.7,52.0,30.06,South,190,1.0,2.0,94,0.08,,,0.08,weatherlink.com 1.10,2013-09-11 11:02:00,
2013-09-11 04:17:00,53.6,52.0,30.06,SSW,198,0.0,4.0,94,0.16,,,0.16,weatherlink.com 1.10,2013-09-11 11:17:00,
2013-09-11 04:32:00,53.6,52.0,30.05,SW,226,0.0,4.0,94,0.16,,,0.16,weatherlink.com 1.10,2013-09-11 11:32:00,
2013-09-11 04:47:00,53.6,52.0,30.05,SW,226,0.0,3.0,95,0.14,,,0.16,weatherlink.com 1.10,2013-09-11 11:47:00,
2013-09-11 05:02:00,53.7,52.0,30.06,SW,226,0.0,3.0,95,0.08,,,0.16,weatherlink.com 1.10,2013-09-11 12:02:00,
2013-09-11 05:17:00,53.7,52.0,30.06,SE,131,1.0,2.0,95,0.01,,,0.17,weatherlink.com 1.10,2013-09-11 12:17:00,
2013-09-11 05:32:00,53.7,52.0,30.06,WSW,238,0.0,3.0,95,0.01,,,0.17,weatherlink.com 1.10,2013-09-11 12:32:00,
2013-09-11 05:47:00,53.6,52.0,30.07,SSE,157,0.0,3.0,95,0.01,,,0.17,weatherlink.com 1.10,2013-09-11 12:47:00,
2013-09-11 06:02:00,53.6,52.0,30.07,SW,236,0.0,4.0,95,0.01,,,0.17,weatherlink.com 1.10,2013-09-11 13:02:00,
2013-09-11 06:17:00,53.6,52.0,30.07,SW,236,0.0,3.0,95,0.00,,,0.17,weatherlink.com 1.10,2013-09-11 13:17:00,
2013-09-11 06:32:00,53.6,52.0,30.08,South,181,0.0,4.0,95,0.00,,,0.17,weatherlink.com 1.10,2013-09-11 13:32:00,
2013-09-11 06:47:00,53.7,52.0,30.09,South,181,0.0,4.0,95,0.00,,,0.17,weatherlink.com 1.10,2013-09-11 13:47:00,
2013-09-11 07:02:00,53.7,52.0,30.09,South,179,0.0,4.0,95,0.00,,,0.17,weatherlink.com 1.10,2013-09-11 14:02:00,
2013-09-11 07:17:00,53.8,52.0,30.09,South,179,0.0,1.0,95,0.01,,,0.18,weatherlink.com 1.10,2013-09-11 14:17:00,
2013-09-11 07:32:00,53.9,53.0,30.09,SW,234,0.0,4.0,95,0.01,,,0.18,weatherlink.com 1.10,2013-09-11 14:32:00,
2013-09-11 07:47:00,54.0,53.0,30.10,WSW,245,2.0,5.0,95,0.01,,,0.18,weatherlink.com 1.10,2013-09-11 14:47:00,
2013-09-11 08:02:00,54.1,53.0,30.10,South,184,4.0,7.0,95,0.02,,,0.19,weatherlink.com 1.10,2013-09-11 15:02:00,
2013-09-11 08:17:00,54.1,53.0,30.11,South,184,0.0,2.0,95,0.01,,,0.19,weatherlink.com 1.10,2013-09-11 15:17:00,
2013-09-11 08:32:00,54.0,53.0,30.11,WSW,250,0.0,6.0,95,0.01,,,0.19,weatherlink.com 1.10,2013-09-11 15:32:00,
2013-09-11 08:47:00,54.1,53.0,30.11,WSW,250,0.0,2.0,95,0.01,,,0.19,weatherlink.com 1.10,2013-09-11 15:47:00,
2013-09-11 09:02:00,54.2,53.0,30.12,WSW,250,0.0,2.0,95,0.01,,,0.20,weatherlink.com 1.10,2013-09-11 16:02:00,
2013-09-11 09:17:00,54.4,53.0,30.12,WSW,250,0.0,3.0,95,0.02,,,0.21,weatherlink.com 1.10,2013-09-11 16:17:00,
2013-09-11 09:32:00,54.5,53.0,30.13,WSW,250,0.0,3.0,95,0.03,,,0.22,weatherlink.com 1.10,2013-09-11 16:32:00,
2013-09-11 09:47:00,54.5,53.0,30.13,NNW,330,0.0,4.0,95,0.05,,,0.24,weatherlink.com 1.10,2013-09-11 16:47:00,
2013-09-11 10:02:00,54.8,53.0,30.13,NNW,330,1.0,2.0,95,0.04,,,0.24,weatherlink.com 1.10,2013-09-11 17:02:00,
2013-09-11 10:17:00,55.0,54.0,30.14,West,276,1.0,3.0,95,0.03,,,0.24,weatherlink.com 1.10,2013-09-11 17:17:00,
2013-09-11 10:32:00,55.2,54.0,30.14,SW,231,0.0,3.0,95,0.02,,,0.24,weatherlink.com 1.10,2013-09-11 17:32:00,
2013-09-11 10:47:00,55.7,54.0,30.14,SW,231,0.0,3.0,95,0.00,,,0.24,weatherlink.com 1.10,2013-09-11 17:47:00,
2013-09-11 11:03:00,56.2,55.0,30.14,SW,231,0.0,2.0,95,0.01,,,0.25,weatherlink.com 1.10,2013-09-11 18:03:00,
2013-09-11 11:18:00,56.3,55.0,30.14,South,182,0.0,3.0,94,0.01,,,0.25,weatherlink.com 1.10,2013-09-11 18:18:00,
2013-09-11 11:33:00,56.4,55.0,30.14,South,183,0.0,2.0,94,0.01,,,0.25,weatherlink.com 1.10,2013-09-11 18:33:00,
2013-09-11 11:48:00,58.0,56.0,30.14,SSW,203,0.0,4.0,93,0.01,,,0.25,weatherlink.com 1.10,2013-09-11 18:48:00,
2013-09-11 12:03:00,59.3,55.0,30.13,SSW,203,3.0,4.0,86,0.00,,,0.25,weatherlink.com 1.10,2013-09-11 19:03:00,
2013-09-11 12:18:00,60.9,55.0,30.13,SSW,198,0.0,5.0,82,0.00,,,0.25,weatherlink.com 1.10,2013-09-11 19:18:00,
2013-09-11 12:33:00,61.6,54.0,30.12,SW,226,2.0,6.0,77,0.00,,,0.25,weatherlink.com 1.10,2013-09-11 19:33:00,
2013-09-11 12:48:00,62.7,55.0,30.12,NW,311,3.0,5.0,75,0.00,,,0.25,weatherlink.com 1.10,2013-09-11 19:48:00,
2013-09-11 13:03:00,64.1,55.0,30.12,SSW,193,3.0,6.0,72,0.00,,,0.25,weatherlink.com 1.10,2013-09-11 20:03:00,
2013-09-11 13:18:00,64.5,55.0,30.12,WSW,243,3.0,7.0,72,0.00,,,0.25,weatherlink.com 1.10,2013-09-11 20:18:00,
2013-09-11 13:33:00,65.3,55.0,30.11,NW,304,0.0,5.0,69,0.00,,,0.25,weatherlink.com 1.10,2013-09-11 20:33:00,
2013-09-11 13:48:00,65.0,56.0,30.11,SE,143,2.0,7.0,72,0.00,,,0.25,weatherlink.com 1.10,2013-09-11 20:48:00,
2013-09-11 14:03:00,66.1,55.0,30.10,SSW,201,1.0,7.0,67,0.00,,,0.25,weatherlink.com 1.10,2013-09-11 21:03:00,
2013-09-11 14:18:00,66.5,55.0,30.11,SW,225,3.0,5.0,66,0.00,,,0.25,weatherlink.com 1.10,2013-09-11 21:18:00,
2013-09-11 14:33:00,66.3,54.0,30.10,SW,227,2.0,8.0,64,0.00,,,0.25,weatherlink.com 1.10,2013-09-11 21:33:00,
2013-09-11 14:48:00,65.8,56.0,30.10,WSW,242,3.0,5.0,70,0.00,,,0.25,weatherlink.com 1.10,2013-09-11 21:48:00,
2013-09-11 15:04:00,65.9,54.0,30.10,SSW,193,1.0,4.0,66,0.00,,,0.25,weatherlink.com 1.10,2013-09-11 22:04:00,
2013-09-11 15:18:00,64.7,55.0,30.09,WSW,257,3.0,6.0,70,0.00,,,0.25,weatherlink.com 1.10,2013-09-11 22:18:00,
2013-09-11 15:33:00,64.6,55.0,30.08,SW,226,1.0,5.0,70,0.00,,,0.25,weatherlink.com 1.10,2013-09-11 22:33:00,
2013-09-11 15:48:00,64.9,54.0,30.08,South,174,0.0,4.0,68,0.00,,,0.25,weatherlink.com 1.10,2013-09-11 22:48:00,
2013-09-11 16:03:00,64.1,55.0,30.08,SSW,195,1.0,5.0,72,0.00,,,0.25,weatherlink.com 1.10,2013-09-11 23:03:00,
2013-09-11 16:18:00,64.6,55.0,30.08,SW,221,0.0,6.0,70,0.00,,,0.25,weatherlink.com 1.10,2013-09-11 23:18:00,
2013-09-11 16:33:00,64.5,54.0,30.08,West,264,0.0,6.0,68,0.00,,,0.25,weatherlink.com 1.10,2013-09-11 23:33:00,
2013-09-11 16:48:00,64.8,54.0,30.08,South,186,3.0,4.0,67,0.00,,,0.25,weatherlink.com 1.10,2013-09-11 23:48:00,
2013-09-11 17:03:00,65.2,53.0,30.08,WSW,249,2.0,6.0,64,0.00,,,0.25,weatherlink.com 1.10,2013-09-12 00:03:00,
2013-09-11 17:18:00,63.8,53.0,30.09,WSW,243,4.0,6.0,68,0.00,,,0.25,weatherlink.com 1.10,2013-09-12 00:18:00,
2013-09-11 17:33:00,61.8,51.0,30.08,NNW,328,0.0,4.0,67,0.00,,,0.25,weatherlink.com 1.10,2013-09-12 00:33:00,
2013-09-11 17:48:00,60.5,49.0,30.08,WNW,300,0.0,2.0,67,0.00,,,0.25,weatherlink.com 1.10,2013-09-12 00:48:00,
2013-09-11 18:03:00,59.5,50.0,30.09,WNW,300,0.0,3.0,71,0.00,,,0.25,weatherlink.com 1.10,2013-09-12 01:03:00,
2013-09-11 18:18:00,58.8,50.0,30.09,WNW,300,0.0,0.0,72,0.00,,,0.25,weatherlink.com 1.10,2013-09-12 01:18:00,
2013-09-11 18:33:00,58.2,51.0,30.09,WNW,300,0.0,0.0,76,0.00,,,0.25,weatherlink.com 1.10,2013-09-12 01:33:00,
2013-09-11 18:48:00,57.7,51.0,30.09,WNW,300,0.0,0.0,78,0.00,,,0.25,weatherlink.com 1.10,2013-09-12 01:48:00,
2013-09-11 19:03:00,56.8,51.0,30.09,WNW,300,0.0,1.0,80,0.00,,,0.25,weatherlink.com 1.10,2013-09-12 02:03:00,
2013-09-11 19:18:00,56.0,50.0,30.09,WNW,300,0.0,1.0,81,0.00,,,0.25,weatherlink.com 1.10,2013-09-12 02:18:00,
2013-09-11 19:33:00,55.3,51.0,30.10,NW,320,0.0,2.0,84,0.00,,,0.25,weatherlink.com 1.10,2013-09-12 02:33:00,
2013-09-11 19:48:00,54.6,50.0,30.10,NW,320,0.0,1.0,84,0.00,,,0.25,weatherlink.com 1.10,2013-09-12 02:48:00,
2013-09-11 20:03:00,53.8,50.0,30.11,NW,320,0.0,0.0,86,0.00,,,0.25,weatherlink.com 1.10,2013-09-12 03:03:00,
2013-09-11 20:19:00,53.1,49.0,30.11,NW,320,0.0,0.0,87,0.00,,,0.25,weatherlink.com 1.10,2013-09-12 03:19:00,
2013-09-11 20:34:00,52.3,49.0,30.11,NW,320,0.0,1.0,89,0.00,,,0.25,weatherlink.com 1.10,2013-09-12 03:34:00,
2013-09-11 20:49:00,51.8,49.0,30.11,NW,320,0.0,2.0,90,0.00,,,0.25,weatherlink.com 1.10,2013-09-12 03:49:00,
2013-09-11 21:04:00,51.6,49.0,30.11,NW,320,0.0,1.0,90,0.00,,,0.25,weatherlink.com 1.10,2013-09-12 04:04:00,
2013-09-11 21:19:00,51.5,48.0,30.11,NW,320,0.0,2.0,89,0.00,,,0.25,weatherlink.com 1.10,2013-09-12 04:19:00,
2013-09-11 21:34:00,51.3,48.0,30.11,NW,320,0.0,1.0,89,0.00,,,0.25,weatherlink.com 1.10,2013-09-12 04:34:00,
2013-09-11 21:49:00,51.0,48.0,30.10,NW,320,0.0,1.0,89,0.00,,,0.25,weatherlink.com 1.10,2013-09-12 04:49:00,
2013-09-11 22:04:00,50.7,48.0,30.11,NW,320,0.0,1.0,89,0.00,,,0.25,weatherlink.com 1.10,2013-09-12 05:04:00,
2013-09-11 22:20:00,50.3,47.0,30.11,NW,320,0.0,3.0,89,0.00,,,0.25,weatherlink.com 1.10,2013-09-12 05:20:00,
2013-09-11 22:34:00,50.6,48.0,30.11,NW,320,0.0,3.0,89,0.00,,,0.25,weatherlink.com 1.10,2013-09-12 05:34:00,
2013-09-11 22:49:00,50.6,47.0,30.12,NW,320,1.0,2.0,88,0.00,,,0.25,weatherlink.com 1.10,2013-09-12 05:49:00,
2013-09-11 23:04:00,50.1,47.0,30.13,NW,320,0.0,1.0,89,0.00,,,0.25,weatherlink.com 1.10,2013-09-12 06:04:00,
2013-09-11 23:19:00,49.9,47.0,30.12,NW,320,0.0,1.0,90,0.00,,,0.25,weatherlink.com 1.10,2013-09-12 06:19:00,
2013-09-11 23:34:00,49.4,47.0,30.13,NW,320,0.0,1.0,90,0.00,,,0.25,weatherlink.com 1.10,2013-09-12 06:34:00,
2013-09-11 23:49:00,49.1,47.0,30.12,NW,320,0.0,1.0,91,0.00,,,0.25,weatherlink.com 1.10,2013-09-12 06:49:00,